This is the latest recevied weather packets stored in our database for station/object KB7STN. If no packets are shown the sender has not sent any weather packets the latest 1 day(s).
| Time | Temp. | Humidity | Pressure | Rain* | Wind** | Luminosity | Snow |
|---|---|---|---|---|---|---|---|
| 1778010737 | 11.67° C | 58% | 1001.2 hPa | 0 mm | 0.89 m/s, 173° | - | - |
| 1778010437 | 11.67° C | 58% | 1001.3 hPa | 0 mm | 0.89 m/s, 173° | - | - |
| 1778010137 | 11.67° C | 56% | 1001.2 hPa | 0 mm | 0.89 m/s, 171° | - | - |
| 1778009837 | 11.67° C | 56% | 1001.3 hPa | 0 mm | 1.34 m/s, 191° | - | - |
| 1778009537 | 11.67° C | 57% | 1001.3 hPa | 0 mm | 1.34 m/s, 184° | - | - |
| 1778009263 | 11.67° C | 58% | 1001.2 hPa | 0 mm | 1.34 m/s, 194° | - | - |
| 1778008937 | 11.11° C | 57% | 1001.2 hPa | 0 mm | 1.34 m/s, 190° | - | - |
| 1778008637 | 11.11° C | 57% | 1001.1 hPa | 0 mm | 1.34 m/s, 203° | - | - |
| 1778008337 | 11.11° C | 58% | 1001.2 hPa | 0 mm | 1.34 m/s, 213° | - | - |
| 1778008037 | 11.11° C | 59% | 1001.1 hPa | 0 mm | 1.34 m/s, 197° | - | - |
| 1778007737 | 11.11° C | 58% | 1001.2 hPa | 0 mm | 1.79 m/s, 170° | - | - |
| 1778007437 | 11.11° C | 58% | 1001.2 hPa | 0 mm | 1.79 m/s, 207° | - | - |
| 1778007137 | 11.11° C | 59% | 1001.1 hPa | 0 mm | 1.79 m/s, 207° | - | - |
| 1778006837 | 11.67° C | 59% | 1001.2 hPa | 0 mm | 1.34 m/s, 184° | - | - |
| 1778006537 | 11.67° C | 59% | 1001.1 hPa | 0 mm | 1.79 m/s, 202° | - | - |
| 1778006237 | 11.11° C | 60% | 1001 hPa | 0 mm | 1.79 m/s, 195° | - | - |
| 1778005937 | 11.11° C | 61% | 1001 hPa | 0 mm | 1.79 m/s, 180° | - | - |
| 1778005637 | 10.56° C | 61% | 1001 hPa | 0 mm | 1.79 m/s, 229° | - | - |
| 1778005337 | 10.56° C | 62% | 1000.9 hPa | 0 mm | 1.79 m/s, 213° | - | - |
| 1778005037 | 10.56° C | 63% | 1000.8 hPa | 0 mm | 1.34 m/s, 179° | - | - |
| 1778004737 | 10.56° C | 62% | 1000.8 hPa | 0 mm | 1.34 m/s, 201° | - | - |
| 1778004437 | 10.56° C | 63% | 1001 hPa | 0 mm | 1.34 m/s, 211° | - | - |
| 1778004137 | 10.56° C | 62% | 1001.1 hPa | 0 mm | 1.79 m/s, 209° | - | - |
| 1778003837 | 10.56° C | 63% | 1001 hPa | 0 mm | 1.34 m/s, 152° | - | - |
| 1778003537 | 10.56° C | 62% | 1001 hPa | 0 mm | 1.34 m/s, 217° | - | - |
* Rain latest hour (hover to see other rain measurements)
** Current wind speed in m/s (hover to see current wind gust speed)